Location: Berkeley
(37.8716°N, 122.2727°W)
Time: 23:08:06
(UTC-07:00)

EO-79 - Visible Passes

Search period start: 24 April 2019 00:00
Search period end: 04 May 2019 00:00
Orbit: 593 x 609 km, 97.9° (Epoch: 24 April)

Date Brightness Start Highest point End Pass type
(mag) Time Alt. Az. Time Alt. Az. Time Alt. Az.
24 Apr ? 01:21:06 10° NNE 01:21:07 10° NNE 01:21:07 10° NNE visible
25 Apr ? 01:32:32 10° NNE 01:32:49 12° NNE 01:32:49 12° NNE visible
26 Apr ? 01:44:01 10° N 01:44:31 13° N 01:44:31 13° N visible
27 Apr ? 01:55:35 10° N 01:56:13 14° N 01:56:13 14° N visible
28 Apr ? 02:07:12 10° N 02:07:55 14° N 02:07:55 14° N visible
29 Apr ? 02:18:54 10° N 02:19:37 14° NNW 02:19:37 14° NNW visible
30 Apr ? 02:30:41 10° NNW 02:31:19 13° NNW 02:31:19 13° NNW visible
01 May ? 01:06:02 10° NNE 01:06:14 11° NNE 01:06:14 11° NNE visible
01 May ? 02:42:36 10° NNW 02:43:01 12° NNW 02:43:01 12° NNW visible
02 May ? 01:17:21 10° NNE 01:17:56 13° NNE 01:17:56 13° NNE visible
03 May ? 01:28:45 10° NNE 01:29:37 16° NNE 01:29:37 16° NNE visible
